Year,Month,Day,Hour,Minute,Value (Times are PST for temperature in C)
2018,10,04,00,00,3.30
2018,10,04,00,01,3.30
2018,10,04,00,02,3.30
2018,10,04,00,03,3.30
2018,10,04,00,04,3.30
2018,10,04,00,05,3.30
2018,10,04,00,06,3.30
2018,10,04,00,07,3.30
2018,10,04,00,08,3.30
2018,10,04,00,09,3.30
2018,10,04,00,10,3.30
2018,10,04,00,11,3.30
2018,10,04,00,12,3.30
2018,10,04,00,13,3.30
2018,10,04,00,14,3.30
2018,10,04,00,15,3.30
2018,10,04,00,16,3.20
2018,10,04,00,17,3.20
2018,10,04,00,18,3.20
2018,10,04,00,19,3.20
2018,10,04,00,20,3.20
2018,10,04,00,21,3.20
2018,10,04,00,22,3.20
2018,10,04,00,23,3.20
2018,10,04,00,24,3.20
2018,10,04,00,25,3.20
2018,10,04,00,26,3.20
2018,10,04,00,27,3.20
2018,10,04,00,28,3.20
2018,10,04,00,29,3.20
2018,10,04,00,30,3.20
2018,10,04,00,31,3.20
2018,10,04,00,32,3.20
2018,10,04,00,33,3.20
2018,10,04,00,34,3.20
2018,10,04,00,35,3.20
2018,10,04,00,36,3.10
2018,10,04,00,37,3.10
2018,10,04,00,38,3.10
2018,10,04,00,39,3.10
2018,10,04,00,40,3.10
2018,10,04,00,41,3.00
2018,10,04,00,42,3.00
2018,10,04,00,43,3.00
2018,10,04,00,44,3.00
2018,10,04,00,45,3.00
2018,10,04,00,46,3.00
2018,10,04,00,47,2.90
2018,10,04,00,48,2.90
2018,10,04,00,49,2.90
2018,10,04,00,50,2.90
2018,10,04,00,51,2.90
2018,10,04,00,52,2.90
2018,10,04,00,53,2.90
2018,10,04,00,54,2.90
2018,10,04,00,55,2.80
2018,10,04,00,56,2.90
2018,10,04,00,57,2.80
2018,10,04,00,58,2.80
2018,10,04,00,59,2.80
2018,10,04,01,00,2.80
2018,10,04,01,01,2.80
2018,10,04,01,02,2.80
2018,10,04,01,03,2.80
2018,10,04,01,04,2.80
2018,10,04,01,05,2.80
2018,10,04,01,06,2.80
2018,10,04,01,07,2.70
2018,10,04,01,08,2.70
2018,10,04,01,09,2.70
2018,10,04,01,10,2.70
2018,10,04,01,11,2.70
2018,10,04,01,12,2.70
2018,10,04,01,13,2.70
2018,10,04,01,14,2.60
2018,10,04,01,15,2.60
2018,10,04,01,16,2.60
2018,10,04,01,17,2.60
2018,10,04,01,18,2.60
2018,10,04,01,19,2.60
2018,10,04,01,20,2.60
2018,10,04,01,21,2.60
2018,10,04,01,22,2.50
2018,10,04,01,23,2.50
2018,10,04,01,24,2.50
2018,10,04,01,25,2.50
2018,10,04,01,26,2.50
2018,10,04,01,27,2.50
2018,10,04,01,28,2.50
2018,10,04,01,29,2.50
2018,10,04,01,30,2.50
2018,10,04,01,31,2.50
2018,10,04,01,32,2.50
2018,10,04,01,33,2.50
2018,10,04,01,34,2.50
2018,10,04,01,35,2.50
2018,10,04,01,36,2.50
2018,10,04,01,37,2.50
2018,10,04,01,38,2.50
2018,10,04,01,39,2.40
2018,10,04,01,40,2.40
2018,10,04,01,41,2.40
2018,10,04,01,42,2.40
2018,10,04,01,43,2.40
2018,10,04,01,44,2.40
2018,10,04,01,45,2.40
2018,10,04,01,46,2.40
2018,10,04,01,47,2.40
2018,10,04,01,48,2.40
2018,10,04,01,49,2.40
2018,10,04,01,50,2.40
2018,10,04,01,51,2.40
2018,10,04,01,52,2.40
2018,10,04,01,53,2.40
2018,10,04,01,54,2.40
2018,10,04,01,55,2.40
2018,10,04,01,56,2.40
2018,10,04,01,57,2.40
2018,10,04,01,58,2.40
2018,10,04,01,59,2.40
2018,10,04,02,00,2.40
2018,10,04,02,01,2.40
2018,10,04,02,02,2.40
2018,10,04,02,03,2.30
2018,10,04,02,04,2.30
2018,10,04,02,05,2.30
2018,10,04,02,06,2.30
2018,10,04,02,07,2.30
2018,10,04,02,08,2.30
2018,10,04,02,09,2.30
2018,10,04,02,10,2.30
2018,10,04,02,11,2.30
2018,10,04,02,12,2.30
2018,10,04,02,13,2.30
2018,10,04,02,14,2.30
2018,10,04,02,15,2.30
2018,10,04,02,16,2.30
2018,10,04,02,17,2.30
2018,10,04,02,18,2.30
2018,10,04,02,19,2.30
2018,10,04,02,20,2.30
2018,10,04,02,21,2.30
2018,10,04,02,22,2.30
2018,10,04,02,23,2.30
2018,10,04,02,24,2.30
2018,10,04,02,25,2.30
2018,10,04,02,26,2.20
2018,10,04,02,27,2.20
2018,10,04,02,28,2.20
2018,10,04,02,29,2.20
2018,10,04,02,30,2.20
2018,10,04,02,31,2.20
2018,10,04,02,32,2.20
2018,10,04,02,33,2.20
2018,10,04,02,34,2.20
2018,10,04,02,35,2.20
2018,10,04,02,36,2.20
2018,10,04,02,37,2.20
2018,10,04,02,38,2.20
2018,10,04,02,39,2.20
2018,10,04,02,40,2.20
2018,10,04,02,41,2.20
2018,10,04,02,42,2.20
2018,10,04,02,43,2.20
2018,10,04,02,44,2.10
2018,10,04,02,45,2.10
2018,10,04,02,46,2.10
2018,10,04,02,47,2.10
2018,10,04,02,48,2.10
2018,10,04,02,49,2.10
2018,10,04,02,50,2.10
2018,10,04,02,51,2.10
2018,10,04,02,52,2.10
2018,10,04,02,53,2.10
2018,10,04,02,54,2.10
2018,10,04,02,55,2.10
2018,10,04,02,56,2.10
2018,10,04,02,57,2.10
2018,10,04,02,58,2.10
2018,10,04,02,59,2.10
2018,10,04,03,00,2.10
2018,10,04,03,01,2.10
2018,10,04,03,02,2.00
2018,10,04,03,03,2.00
2018,10,04,03,04,2.00
2018,10,04,03,05,2.00
2018,10,04,03,06,2.00
2018,10,04,03,07,2.00
2018,10,04,03,08,2.00
2018,10,04,03,09,2.00
2018,10,04,03,10,2.00
2018,10,04,03,11,2.00
2018,10,04,03,12,2.00
2018,10,04,03,13,1.90
2018,10,04,03,14,1.90
2018,10,04,03,15,1.90
2018,10,04,03,16,1.90
2018,10,04,03,17,1.90
2018,10,04,03,18,1.90
2018,10,04,03,19,1.90
2018,10,04,03,20,1.90
2018,10,04,03,21,1.90
2018,10,04,03,22,1.90
2018,10,04,03,23,1.90
2018,10,04,03,24,1.90
2018,10,04,03,25,1.90
2018,10,04,03,26,1.90
2018,10,04,03,27,1.90
2018,10,04,03,28,1.90
2018,10,04,03,29,1.90
2018,10,04,03,30,1.90
2018,10,04,03,31,1.90
2018,10,04,03,32,1.90
2018,10,04,03,33,1.90
2018,10,04,03,34,1.90
2018,10,04,03,35,1.90
2018,10,04,03,36,1.90
2018,10,04,03,37,1.90
2018,10,04,03,38,1.90
2018,10,04,03,39,1.90
2018,10,04,03,40,1.90
2018,10,04,03,41,1.90
2018,10,04,03,42,1.90
2018,10,04,03,43,1.90
2018,10,04,03,44,1.90
2018,10,04,03,45,1.90
2018,10,04,03,46,1.90
2018,10,04,03,47,1.90
2018,10,04,03,48,1.90
2018,10,04,03,49,1.90
2018,10,04,03,50,1.90
2018,10,04,03,51,1.90
2018,10,04,03,52,1.90
2018,10,04,03,53,1.90
2018,10,04,03,54,1.90
2018,10,04,03,55,1.90
2018,10,04,03,56,1.80
2018,10,04,03,57,1.80
2018,10,04,03,58,1.80
2018,10,04,03,59,1.80
2018,10,04,04,00,1.80
2018,10,04,04,01,1.80
2018,10,04,04,02,1.80
2018,10,04,04,03,1.80
2018,10,04,04,04,1.80
2018,10,04,04,05,1.80
2018,10,04,04,06,1.80
2018,10,04,04,07,1.80
2018,10,04,04,08,1.80
2018,10,04,04,09,1.80
2018,10,04,04,10,1.80
2018,10,04,04,11,1.70
2018,10,04,04,12,1.70
2018,10,04,04,13,1.70
2018,10,04,04,14,1.70
2018,10,04,04,15,1.70
2018,10,04,04,16,1.70
2018,10,04,04,17,1.70
2018,10,04,04,18,1.70
2018,10,04,04,19,1.70
2018,10,04,04,20,1.70
2018,10,04,04,21,1.70
2018,10,04,04,22,1.70
2018,10,04,04,23,1.60
2018,10,04,04,24,1.60
2018,10,04,04,25,1.60
2018,10,04,04,26,1.60
2018,10,04,04,27,1.60
2018,10,04,04,28,1.60
2018,10,04,04,29,1.60
2018,10,04,04,30,1.60
2018,10,04,04,31,1.60
2018,10,04,04,32,1.60
2018,10,04,04,33,1.60
2018,10,04,04,34,1.60
2018,10,04,04,35,1.60
2018,10,04,04,36,1.60
2018,10,04,04,37,1.60
2018,10,04,04,38,1.60
2018,10,04,04,39,1.60
2018,10,04,04,40,1.60
2018,10,04,04,41,1.60
2018,10,04,04,42,1.60
2018,10,04,04,43,1.60
2018,10,04,04,44,1.60
2018,10,04,04,45,1.60
2018,10,04,04,46,1.60
2018,10,04,04,47,1.60
2018,10,04,04,48,1.70
2018,10,04,04,49,1.60
2018,10,04,04,50,1.60
2018,10,04,04,51,1.60
2018,10,04,04,52,1.60
2018,10,04,04,53,1.60
2018,10,04,04,54,1.60
2018,10,04,04,55,1.60
2018,10,04,04,56,1.60
2018,10,04,04,57,1.60
2018,10,04,04,58,1.60
2018,10,04,04,59,1.60
2018,10,04,05,00,1.60
2018,10,04,05,01,1.60
2018,10,04,05,02,1.60
2018,10,04,05,03,1.60
2018,10,04,05,04,1.50
2018,10,04,05,05,1.50
2018,10,04,05,06,1.50
2018,10,04,05,07,1.50
2018,10,04,05,08,1.50
2018,10,04,05,09,1.50
2018,10,04,05,10,1.50
2018,10,04,05,11,1.50
2018,10,04,05,12,1.50
2018,10,04,05,13,1.50
2018,10,04,05,14,1.50
2018,10,04,05,15,1.50
2018,10,04,05,16,1.50
2018,10,04,05,17,1.50
2018,10,04,05,18,1.50
2018,10,04,05,19,1.50
2018,10,04,05,20,1.50
2018,10,04,05,21,1.40
2018,10,04,05,22,1.50
2018,10,04,05,23,1.40
2018,10,04,05,24,1.40
2018,10,04,05,25,1.40
2018,10,04,05,26,1.40
2018,10,04,05,27,1.40
2018,10,04,05,28,1.40
2018,10,04,05,29,1.40
2018,10,04,05,30,1.40
2018,10,04,05,31,1.40
2018,10,04,05,32,1.40
2018,10,04,05,33,1.40
2018,10,04,05,34,1.40
2018,10,04,05,35,1.40
2018,10,04,05,36,1.40
2018,10,04,05,37,1.40
2018,10,04,05,38,1.40
2018,10,04,05,39,1.40
2018,10,04,05,40,1.40
2018,10,04,05,41,1.40
2018,10,04,05,42,1.40
2018,10,04,05,43,1.40
2018,10,04,05,44,1.40
2018,10,04,05,45,1.40
2018,10,04,05,46,1.40
2018,10,04,05,47,1.40
2018,10,04,05,48,1.40
2018,10,04,05,49,1.40
2018,10,04,05,50,1.40
2018,10,04,05,51,1.40
2018,10,04,05,52,1.40
2018,10,04,05,53,1.30
2018,10,04,05,54,1.30
2018,10,04,05,55,1.30
2018,10,04,05,56,1.30
2018,10,04,05,57,1.30
2018,10,04,05,58,1.30
2018,10,04,05,59,1.30
2018,10,04,06,00,1.30
2018,10,04,06,01,1.30
2018,10,04,06,02,1.30
2018,10,04,06,03,1.30
2018,10,04,06,04,1.40
2018,10,04,06,05,1.40
2018,10,04,06,06,1.40
2018,10,04,06,07,1.40
2018,10,04,06,08,1.40
2018,10,04,06,09,1.40
2018,10,04,06,10,1.40
2018,10,04,06,11,1.40
2018,10,04,06,12,1.40
2018,10,04,06,13,1.40
2018,10,04,06,14,1.40
2018,10,04,06,15,1.40
2018,10,04,06,16,1.40
2018,10,04,06,17,1.40
2018,10,04,06,18,1.40
2018,10,04,06,19,1.40
2018,10,04,06,20,1.40
2018,10,04,06,21,1.40
2018,10,04,06,22,1.40
2018,10,04,06,23,1.40
2018,10,04,06,24,1.40
2018,10,04,06,25,1.40
2018,10,04,06,26,1.40
2018,10,04,06,27,1.40
2018,10,04,06,28,1.40
2018,10,04,06,29,1.40
2018,10,04,06,30,1.40
2018,10,04,06,31,1.40
2018,10,04,06,32,1.40
2018,10,04,06,33,1.40
2018,10,04,06,34,1.50
2018,10,04,06,35,1.50
2018,10,04,06,36,1.50
2018,10,04,06,37,1.50
2018,10,04,06,38,1.50
2018,10,04,06,39,1.50
2018,10,04,06,40,1.50
2018,10,04,06,41,1.50
2018,10,04,06,42,1.50
2018,10,04,06,43,1.50
2018,10,04,06,44,1.50
2018,10,04,06,45,1.50
2018,10,04,06,46,1.50
2018,10,04,06,47,1.50
2018,10,04,06,48,1.50
2018,10,04,06,49,1.50
2018,10,04,06,50,1.50
2018,10,04,06,51,1.50
2018,10,04,06,52,1.50
2018,10,04,06,53,1.50
2018,10,04,06,54,1.50
2018,10,04,06,55,1.50
2018,10,04,06,56,1.50
2018,10,04,06,57,1.50
2018,10,04,06,58,1.50
2018,10,04,06,59,1.50
2018,10,04,07,00,1.50
2018,10,04,07,01,1.50
2018,10,04,07,02,1.50
2018,10,04,07,03,1.50
2018,10,04,07,04,1.50
2018,10,04,07,05,1.50
2018,10,04,07,06,1.50
2018,10,04,07,07,1.50
2018,10,04,07,08,1.50
2018,10,04,07,09,1.50
2018,10,04,07,10,1.50
2018,10,04,07,11,1.50
2018,10,04,07,12,1.50
2018,10,04,07,13,1.50
2018,10,04,07,14,1.50
2018,10,04,07,15,1.50
2018,10,04,07,16,1.50
2018,10,04,07,17,1.50
2018,10,04,07,18,1.50
2018,10,04,07,19,1.50
2018,10,04,07,20,1.50
2018,10,04,07,21,1.40
2018,10,04,07,22,1.40
2018,10,04,07,23,1.40
2018,10,04,07,24,1.40
2018,10,04,07,25,1.40
2018,10,04,07,26,1.40
2018,10,04,07,27,1.40
2018,10,04,07,28,1.40
2018,10,04,07,29,1.40
2018,10,04,07,30,1.40
2018,10,04,07,31,1.40
2018,10,04,07,32,1.40
2018,10,04,07,33,1.40
2018,10,04,07,34,1.50
2018,10,04,07,35,1.50
2018,10,04,07,36,1.50
2018,10,04,07,37,1.50
2018,10,04,07,38,1.50
2018,10,04,07,39,1.50
2018,10,04,07,40,1.60
2018,10,04,07,41,1.60
2018,10,04,07,42,1.60
2018,10,04,07,43,1.60
2018,10,04,07,44,1.60
2018,10,04,07,45,1.60
2018,10,04,07,46,1.60
2018,10,04,07,47,1.60
2018,10,04,07,48,1.60
2018,10,04,07,49,1.60
2018,10,04,07,50,1.60
2018,10,04,07,51,1.70
2018,10,04,07,52,1.70
2018,10,04,07,53,1.70
2018,10,04,07,54,1.70
2018,10,04,07,55,1.70
2018,10,04,07,56,1.70
2018,10,04,07,57,1.70
2018,10,04,07,58,1.70
2018,10,04,07,59,1.70
2018,10,04,08,00,1.70
2018,10,04,08,01,1.70
2018,10,04,08,02,1.80
2018,10,04,08,03,1.80
2018,10,04,08,04,1.80
2018,10,04,08,05,1.80
2018,10,04,08,06,1.80
2018,10,04,08,07,1.80
2018,10,04,08,08,1.80
2018,10,04,08,09,1.80
2018,10,04,08,10,1.90
2018,10,04,08,11,1.90
2018,10,04,08,12,1.90
2018,10,04,08,13,1.90
2018,10,04,08,14,1.90
2018,10,04,08,15,2.00
2018,10,04,08,16,2.00
2018,10,04,08,17,2.00
2018,10,04,08,18,2.10
2018,10,04,08,19,2.10
2018,10,04,08,20,2.10
2018,10,04,08,21,2.10
2018,10,04,08,22,2.10
2018,10,04,08,23,2.20
2018,10,04,08,24,2.20
2018,10,04,08,25,2.20
2018,10,04,08,26,2.20
2018,10,04,08,27,2.20
2018,10,04,08,28,2.30
2018,10,04,08,29,2.30
2018,10,04,08,30,2.30
2018,10,04,08,31,2.40
2018,10,04,08,32,2.40
2018,10,04,08,33,2.50
2018,10,04,08,34,2.50
2018,10,04,08,35,2.50
2018,10,04,08,36,2.60
2018,10,04,08,37,2.60
2018,10,04,08,38,2.60
2018,10,04,08,39,2.70
2018,10,04,08,40,2.70
2018,10,04,08,41,2.70
2018,10,04,08,42,2.80
2018,10,04,08,43,2.80
2018,10,04,08,44,2.80
2018,10,04,08,45,2.90
2018,10,04,08,46,2.90
2018,10,04,08,47,3.00
2018,10,04,08,48,3.10
2018,10,04,08,49,3.20
2018,10,04,08,50,3.20
2018,10,04,08,51,3.30
2018,10,04,08,52,3.40
2018,10,04,08,53,3.50
2018,10,04,08,54,3.60
2018,10,04,08,55,3.70
2018,10,04,08,56,3.80
2018,10,04,08,57,3.90
2018,10,04,08,58,4.00
2018,10,04,08,59,4.10
2018,10,04,09,00,4.20
2018,10,04,09,01,4.30
2018,10,04,09,02,4.40
2018,10,04,09,03,4.50
2018,10,04,09,04,4.60
2018,10,04,09,05,4.70
2018,10,04,09,06,4.80
2018,10,04,09,07,5.00
2018,10,04,09,08,5.10
2018,10,04,09,09,5.20
2018,10,04,09,10,5.30
2018,10,04,09,11,5.40
2018,10,04,09,12,5.50
2018,10,04,09,13,5.70
2018,10,04,09,14,5.80
2018,10,04,09,15,5.90
2018,10,04,09,16,6.00
2018,10,04,09,17,6.10
2018,10,04,09,18,6.30
2018,10,04,09,19,6.40
2018,10,04,09,20,6.40
2018,10,04,09,21,6.50
2018,10,04,09,22,6.60
2018,10,04,09,23,6.70
2018,10,04,09,24,6.80
2018,10,04,09,25,6.90
2018,10,04,09,26,7.00
2018,10,04,09,27,7.10
2018,10,04,09,28,7.20
2018,10,04,09,29,7.40
2018,10,04,09,30,7.50
2018,10,04,09,31,7.60
2018,10,04,09,32,7.70
2018,10,04,09,33,7.80
2018,10,04,09,34,7.90
2018,10,04,09,35,8.00
2018,10,04,09,36,8.20
2018,10,04,09,37,8.20
2018,10,04,09,38,8.30
2018,10,04,09,39,8.40
2018,10,04,09,40,8.50
2018,10,04,09,41,8.60
2018,10,04,09,42,8.70
2018,10,04,09,43,8.80
2018,10,04,09,44,8.90
2018,10,04,09,45,8.90
2018,10,04,09,46,9.00
2018,10,04,09,47,9.10
2018,10,04,09,48,9.20
2018,10,04,09,49,9.20
2018,10,04,09,50,9.30
2018,10,04,09,51,9.40
2018,10,04,09,52,9.40
2018,10,04,09,53,9.50
2018,10,04,09,54,9.60
2018,10,04,09,55,9.60
2018,10,04,09,56,9.70
2018,10,04,09,57,9.70
2018,10,04,09,58,9.80
2018,10,04,09,59,9.80
2018,10,04,10,00,9.80
2018,10,04,10,01,9.90
2018,10,04,10,02,9.90
2018,10,04,10,03,10.00
2018,10,04,10,04,10.10
2018,10,04,10,05,10.10
2018,10,04,10,06,10.10
2018,10,04,10,07,10.20
2018,10,04,10,08,10.20
2018,10,04,10,09,10.30
2018,10,04,10,10,10.30
2018,10,04,10,11,10.40
2018,10,04,10,12,10.40
2018,10,04,10,13,10.50
2018,10,04,10,14,10.50
2018,10,04,10,15,10.50
2018,10,04,10,16,10.50
2018,10,04,10,17,10.40
2018,10,04,10,18,10.40
2018,10,04,10,19,10.50
2018,10,04,10,20,10.50
2018,10,04,10,21,10.50
2018,10,04,10,22,10.60
2018,10,04,10,23,10.60
2018,10,04,10,24,10.60
2018,10,04,10,25,10.60
2018,10,04,10,26,10.60
2018,10,04,10,27,10.60
2018,10,04,10,28,10.70
2018,10,04,10,29,10.70
2018,10,04,10,30,10.70
2018,10,04,10,31,10.70
2018,10,04,10,32,10.70
2018,10,04,10,33,10.70
2018,10,04,10,34,10.70
2018,10,04,10,35,10.70
2018,10,04,10,36,10.80
2018,10,04,10,37,10.90
2018,10,04,10,38,10.90
2018,10,04,10,39,11.00
2018,10,04,10,40,11.00
2018,10,04,10,41,11.00
2018,10,04,10,42,11.10
2018,10,04,10,43,11.10
2018,10,04,10,44,11.10
2018,10,04,10,45,11.20
2018,10,04,10,46,11.20
2018,10,04,10,47,11.20
2018,10,04,10,48,11.20
2018,10,04,10,49,11.20
2018,10,04,10,50,11.20
2018,10,04,10,51,11.20
2018,10,04,10,52,11.20
2018,10,04,10,53,11.20
2018,10,04,10,54,11.20
2018,10,04,10,55,11.10
2018,10,04,10,56,11.10
2018,10,04,10,57,11.10
2018,10,04,10,58,11.10
2018,10,04,10,59,11.20
2018,10,04,11,00,11.20
2018,10,04,11,01,11.10
2018,10,04,11,02,11.10
2018,10,04,11,03,11.10
2018,10,04,11,04,11.10
2018,10,04,11,05,11.10
2018,10,04,11,06,11.20
2018,10,04,11,07,11.20
2018,10,04,11,08,11.30
2018,10,04,11,09,11.30
2018,10,04,11,10,11.30
2018,10,04,11,11,11.40
2018,10,04,11,12,11.40
2018,10,04,11,13,11.40
2018,10,04,11,14,11.30
2018,10,04,11,15,11.30
2018,10,04,11,16,11.40
2018,10,04,11,17,11.40
2018,10,04,11,18,11.40
2018,10,04,11,19,11.40
2018,10,04,11,20,11.40
2018,10,04,11,21,11.30
2018,10,04,11,22,11.30
2018,10,04,11,23,11.30
2018,10,04,11,24,11.40
2018,10,04,11,25,11.40
2018,10,04,11,26,11.50
2018,10,04,11,27,11.50
2018,10,04,11,28,11.60
2018,10,04,11,29,11.60
2018,10,04,11,30,11.60
2018,10,04,11,31,11.60
2018,10,04,11,32,11.60
2018,10,04,11,33,11.60
2018,10,04,11,34,11.60
2018,10,04,11,35,11.70
2018,10,04,11,36,11.80
2018,10,04,11,37,11.80
2018,10,04,11,38,11.90
2018,10,04,11,39,11.90
2018,10,04,11,40,11.90
2018,10,04,11,41,12.00
2018,10,04,11,42,12.00
2018,10,04,11,43,12.00
2018,10,04,11,44,11.90
2018,10,04,11,45,11.90
2018,10,04,11,46,11.90
2018,10,04,11,47,11.90
2018,10,04,11,48,12.00
2018,10,04,11,49,12.00
2018,10,04,11,50,12.00
2018,10,04,11,51,11.90
2018,10,04,11,52,11.90
2018,10,04,11,53,11.80
2018,10,04,11,54,11.80
2018,10,04,11,55,11.80
2018,10,04,11,56,11.80
2018,10,04,11,57,11.80
2018,10,04,11,58,11.80
2018,10,04,11,59,11.90
2018,10,04,12,00,12.00
2018,10,04,12,01,12.10
2018,10,04,12,02,12.30
2018,10,04,12,03,12.40
2018,10,04,12,04,12.60
2018,10,04,12,05,12.60
2018,10,04,12,06,12.70
2018,10,04,12,07,12.80
2018,10,04,12,08,12.80
2018,10,04,12,09,12.90
2018,10,04,12,10,13.00
2018,10,04,12,11,13.00
2018,10,04,12,12,13.00
2018,10,04,12,13,13.10
2018,10,04,12,14,13.10
2018,10,04,12,15,13.10
2018,10,04,12,16,13.20
2018,10,04,12,17,13.30
2018,10,04,12,18,13.30
2018,10,04,12,19,13.30
2018,10,04,12,20,13.30
2018,10,04,12,21,13.30
2018,10,04,12,22,13.20
2018,10,04,12,23,13.20
2018,10,04,12,24,13.20
2018,10,04,12,25,13.20
2018,10,04,12,26,13.20
2018,10,04,12,27,13.20
2018,10,04,12,28,13.20
2018,10,04,12,29,13.20
2018,10,04,12,30,13.20
2018,10,04,12,31,13.20
2018,10,04,12,32,13.20
2018,10,04,12,33,13.20
2018,10,04,12,34,13.20
2018,10,04,12,35,13.20
2018,10,04,12,36,13.20
2018,10,04,12,37,13.10
2018,10,04,12,38,13.10
2018,10,04,12,39,13.10
2018,10,04,12,40,13.10
2018,10,04,12,41,13.20
2018,10,04,12,42,13.30
2018,10,04,12,43,13.30
2018,10,04,12,44,13.50
2018,10,04,12,45,13.60
2018,10,04,12,46,13.70
2018,10,04,12,47,13.80
2018,10,04,12,48,13.80
2018,10,04,12,49,13.80
2018,10,04,12,50,13.80
2018,10,04,12,51,13.80
2018,10,04,12,52,13.80
2018,10,04,12,53,13.80
2018,10,04,12,54,13.90
2018,10,04,12,55,13.90
2018,10,04,12,56,14.00
2018,10,04,12,57,14.00
2018,10,04,12,58,14.10
2018,10,04,12,59,14.10
2018,10,04,13,00,14.10
2018,10,04,13,01,14.00
2018,10,04,13,02,13.90
2018,10,04,13,03,13.90
2018,10,04,13,04,13.80
2018,10,04,13,05,13.80
2018,10,04,13,06,13.80
2018,10,04,13,07,13.90
2018,10,04,13,08,13.80
2018,10,04,13,09,13.80
2018,10,04,13,10,13.80
2018,10,04,13,11,13.80
2018,10,04,13,12,13.80
2018,10,04,13,13,13.80
2018,10,04,13,14,13.70
2018,10,04,13,15,13.70
2018,10,04,13,16,13.70
2018,10,04,13,17,13.80
2018,10,04,13,18,13.80
2018,10,04,13,19,13.80
2018,10,04,13,20,13.70
2018,10,04,13,21,13.70
2018,10,04,13,22,13.70
2018,10,04,13,23,13.80
2018,10,04,13,24,13.80
2018,10,04,13,25,13.80
2018,10,04,13,26,13.80
2018,10,04,13,27,13.70
2018,10,04,13,28,13.70
2018,10,04,13,29,13.70
2018,10,04,13,30,13.70
2018,10,04,13,31,13.80
2018,10,04,13,32,13.80
2018,10,04,13,33,13.90
2018,10,04,13,34,14.00
2018,10,04,13,35,14.10
2018,10,04,13,36,14.10
2018,10,04,13,37,14.20
2018,10,04,13,38,14.20
2018,10,04,13,39,14.20
2018,10,04,13,40,14.20
2018,10,04,13,41,14.20
2018,10,04,13,42,14.20
2018,10,04,13,43,14.20
2018,10,04,13,44,14.20
2018,10,04,13,45,14.10
2018,10,04,13,46,14.00
2018,10,04,13,47,14.00
2018,10,04,13,48,14.00
2018,10,04,13,49,14.00
2018,10,04,13,50,14.00
2018,10,04,13,51,14.00
2018,10,04,13,52,14.00
2018,10,04,13,53,14.00
2018,10,04,13,54,13.90
2018,10,04,13,55,13.90
2018,10,04,13,56,13.90
2018,10,04,13,57,14.10
2018,10,04,13,58,14.20
2018,10,04,13,59,14.20
2018,10,04,14,00,14.20
2018,10,04,14,01,14.10
2018,10,04,14,02,14.20
2018,10,04,14,03,14.20
2018,10,04,14,04,14.30
2018,10,04,14,05,14.30
2018,10,04,14,06,14.30
2018,10,04,14,07,14.30
2018,10,04,14,08,14.20
2018,10,04,14,09,14.10
2018,10,04,14,10,14.10
2018,10,04,14,11,14.10
2018,10,04,14,12,14.10
2018,10,04,14,13,14.10
2018,10,04,14,14,14.00
2018,10,04,14,15,14.00
2018,10,04,14,16,13.90
2018,10,04,14,17,13.80
2018,10,04,14,18,13.80
2018,10,04,14,19,13.80
2018,10,04,14,20,13.80
2018,10,04,14,21,13.80
2018,10,04,14,22,13.80
2018,10,04,14,23,13.90
2018,10,04,14,24,14.00
2018,10,04,14,25,14.00
2018,10,04,14,26,14.10
2018,10,04,14,27,14.10
2018,10,04,14,28,14.10
2018,10,04,14,29,14.10
2018,10,04,14,30,14.00
2018,10,04,14,31,14.10
2018,10,04,14,32,14.10
2018,10,04,14,33,14.10
2018,10,04,14,34,14.00
2018,10,04,14,35,14.00
2018,10,04,14,36,13.90
2018,10,04,14,37,13.80
2018,10,04,14,38,13.80
2018,10,04,14,39,13.70
2018,10,04,14,40,13.60
2018,10,04,14,41,13.60
2018,10,04,14,42,13.60
2018,10,04,14,43,13.70
2018,10,04,14,44,13.70
2018,10,04,14,45,13.80
2018,10,04,14,46,13.90
2018,10,04,14,47,13.90
2018,10,04,14,48,13.90
2018,10,04,14,49,13.90
2018,10,04,14,50,13.80
2018,10,04,14,51,13.80
2018,10,04,14,52,13.70
2018,10,04,14,53,13.70
2018,10,04,14,54,13.60
2018,10,04,14,55,13.50
2018,10,04,14,56,13.50
2018,10,04,14,57,13.40
2018,10,04,14,58,13.40
2018,10,04,14,59,13.50
2018,10,04,15,00,13.50
2018,10,04,15,01,13.50
2018,10,04,15,02,13.50
2018,10,04,15,03,13.50
2018,10,04,15,04,13.50
2018,10,04,15,05,13.60
2018,10,04,15,06,13.60
2018,10,04,15,07,13.70
2018,10,04,15,08,13.70
2018,10,04,15,09,13.70
2018,10,04,15,10,13.70
2018,10,04,15,11,13.70
2018,10,04,15,12,13.70
2018,10,04,15,13,13.70
2018,10,04,15,14,13.70
2018,10,04,15,15,13.80
2018,10,04,15,16,13.80
2018,10,04,15,17,13.80
2018,10,04,15,18,13.80
2018,10,04,15,19,13.70
2018,10,04,15,20,13.70
2018,10,04,15,21,13.60
2018,10,04,15,22,13.60
2018,10,04,15,23,13.60
2018,10,04,15,24,13.60
2018,10,04,15,25,13.70
2018,10,04,15,26,13.70
2018,10,04,15,27,13.80
2018,10,04,15,28,13.80
2018,10,04,15,29,13.70
2018,10,04,15,30,13.60
2018,10,04,15,31,13.50
2018,10,04,15,32,13.50
2018,10,04,15,33,13.40
2018,10,04,15,34,13.40
2018,10,04,15,35,13.40
2018,10,04,15,36,13.50
2018,10,04,15,37,13.50
2018,10,04,15,38,13.60
2018,10,04,15,39,13.60
2018,10,04,15,40,13.60
2018,10,04,15,41,13.70
2018,10,04,15,42,13.80
2018,10,04,15,43,13.80
2018,10,04,15,44,13.80
2018,10,04,15,45,13.90
2018,10,04,15,46,13.90
2018,10,04,15,47,13.90
2018,10,04,15,48,13.80
2018,10,04,15,49,13.70
2018,10,04,15,50,13.70
2018,10,04,15,51,13.70
2018,10,04,15,52,13.70
2018,10,04,15,53,13.70
2018,10,04,15,54,13.70
2018,10,04,15,55,13.70
2018,10,04,15,56,13.70
2018,10,04,15,57,13.70
2018,10,04,15,58,13.60
2018,10,04,15,59,13.60
2018,10,04,16,00,13.60
2018,10,04,16,01,13.60
2018,10,04,16,02,13.50
2018,10,04,16,03,13.50
2018,10,04,16,04,13.40
2018,10,04,16,05,13.40
2018,10,04,16,06,13.30
2018,10,04,16,07,13.30
2018,10,04,16,08,13.30
2018,10,04,16,09,13.30
2018,10,04,16,10,13.20
2018,10,04,16,11,13.20
2018,10,04,16,12,13.20
2018,10,04,16,13,13.20
2018,10,04,16,14,13.10
2018,10,04,16,15,13.10
2018,10,04,16,16,13.10
2018,10,04,16,17,13.10
2018,10,04,16,18,13.00
2018,10,04,16,19,13.00
2018,10,04,16,20,13.00
2018,10,04,16,21,12.90
2018,10,04,16,22,12.90
2018,10,04,16,23,12.80
2018,10,04,16,24,12.80
2018,10,04,16,25,12.80
2018,10,04,16,26,12.80
2018,10,04,16,27,12.80
2018,10,04,16,28,12.80
2018,10,04,16,29,12.80
2018,10,04,16,30,12.80
2018,10,04,16,31,12.80
2018,10,04,16,32,12.90
2018,10,04,16,33,12.90
2018,10,04,16,34,12.90
2018,10,04,16,35,12.90
2018,10,04,16,36,12.90
2018,10,04,16,37,12.90
2018,10,04,16,38,12.90
2018,10,04,16,39,12.90
2018,10,04,16,40,12.80
2018,10,04,16,41,12.80
2018,10,04,16,42,12.70
2018,10,04,16,43,12.70
2018,10,04,16,44,12.70
2018,10,04,16,45,12.70
2018,10,04,16,46,12.60
2018,10,04,16,47,12.60
2018,10,04,16,48,12.60
2018,10,04,16,49,12.60
2018,10,04,16,50,12.60
2018,10,04,16,51,12.50
2018,10,04,16,52,12.50
2018,10,04,16,53,12.50
2018,10,04,16,54,12.40
2018,10,04,16,55,12.40
2018,10,04,16,56,12.40
2018,10,04,16,57,12.40
2018,10,04,16,58,12.40
2018,10,04,16,59,12.40
2018,10,04,17,00,12.40
2018,10,04,17,01,12.40
2018,10,04,17,02,12.40
2018,10,04,17,03,12.40
2018,10,04,17,04,12.40
2018,10,04,17,05,12.30
2018,10,04,17,06,12.30
2018,10,04,17,07,12.30
2018,10,04,17,08,12.30
2018,10,04,17,09,12.30
2018,10,04,17,10,12.30
2018,10,04,17,11,12.30
2018,10,04,17,12,12.30
2018,10,04,17,13,12.30
2018,10,04,17,14,12.30
2018,10,04,17,15,12.20
2018,10,04,17,16,12.20
2018,10,04,17,17,12.20
2018,10,04,17,18,12.20
2018,10,04,17,19,12.20
2018,10,04,17,20,12.20
2018,10,04,17,21,12.20
2018,10,04,17,22,12.20
2018,10,04,17,23,12.20
2018,10,04,17,24,12.10
2018,10,04,17,25,12.10
2018,10,04,17,26,12.10
2018,10,04,17,27,12.10
2018,10,04,17,28,12.10
2018,10,04,17,29,12.10
2018,10,04,17,30,12.00
2018,10,04,17,31,12.00
2018,10,04,17,32,12.00
2018,10,04,17,33,11.90
2018,10,04,17,34,11.90
2018,10,04,17,35,11.90
2018,10,04,17,36,11.90
2018,10,04,17,37,11.90
2018,10,04,17,38,11.80
2018,10,04,17,39,11.80
2018,10,04,17,40,11.80
2018,10,04,17,41,11.80
2018,10,04,17,42,11.80
2018,10,04,17,43,11.70
2018,10,04,17,44,11.70
2018,10,04,17,45,11.70